Weather observations for the past three days for
Halifax-Northampton Regional Airport
Metric (Imperial)
Date Time (edt) Wind (kph) Vis. (km) Weather Sky Cond. Temperature (ºC) Relative Humidity Wind Chill (°C) Heat Index (°C) Pressure Precipitation (cm)
Air Dwpt 6 hour altimeter (cm) sea level (mb) 1 hr 3 hr 6 hr
Max. Min.
08 22:55 Calm 16.09 Fair CLR 13 11 88% 76.2 0.0
08 22:35 Calm 16.09 Fair CLR 10 10 100% 76.17 0.0
08 22:15 Calm 16.09 Fair CLR 11 11 100% 76.17 0.0
08 21:55 Calm 16.09 Fair CLR 12 12 100% 76.17 0.0
08 21:35 Calm 16.09 Fair CLR 12 12 100% 76.17 0.0
08 21:15 Calm 16.09 Fair CLR 13 12 94% 76.12 0.0
08 20:55 Calm 16.09 Fair CLR 12 12 100% 76.12 0.0
08 20:35 Calm 16.09 Fair CLR 14 12 88% 76.12 0.0
08 20:15 Calm 16.09 Fair CLR 15 12 82% 76.1 0.0
08 19:55 Calm 16.09 Fair CLR 16 12 77% 76.1 0.0
08 19:35 Calm 16.09 Fair CLR 17 11 68% 76.1 0.0
08 19:15 S 6 16.09 Fair CLR 18 11 64% 76.1 0.0
08 18:55 SW 7 16.09 Fair CLR 18 10 60% 76.07 0.0
08 18:35 SW 13 16.09 Fair CLR 19 9 52% 76.1 0.0
08 18:15 S 7 16.09 Fair CLR 20 10 53% 76.07 0.0
08 17:55 S 6 16.09 Fair CLR 20 10 53% 76.07 0.0
08 17:35 SW 13 16.09 Fair CLR 20 10 53% 76.1 0.0
08 17:15 SW 17 16.09 Fair CLR 20 8 46% 76.1 0.0
08 16:55 S 17 16.09 Fair CLR 20 9 49% 76.1 0.0
08 16:35 SW 13 16.09 Fair CLR 20 8 46% 76.1 0.0
08 16:15 SW 11 16.09 Fair CLR 20 8 46% 76.12 0.0
08 15:55 SW 13 16.09 Fair CLR 20 8 46% 76.15 0.0
08 15:35 Calm 16.09 Fair CLR 19 7 46% 76.17 0.0
08 15:15 Calm 16.09 Fair CLR 19 8 49% 76.2 0.0
08 14:55 SW 7 16.09 Fair CLR 18 7 49% 76.23 0.0
08 14:35 SW 11 16.09 Fair CLR 19 8 49% 76.23 0.0
08 14:15 Calm 16.09 Fair CLR 18 8 52% 76.25 0.0
08 13:55 W 7 16.09 Fair CLR 18 8 52% 76.25 0.0
08 13:35 Calm 16.09 Fair CLR 17 8 56% 76.25 0.0
08 13:15 SW 7 16.09 Fair CLR 17 8 56% 76.3 0.0
08 12:55 E 6 16.09 Fair CLR 17 8 56% 76.3 0.0
08 12:35 S 6 16.09 Fair CLR 16 8 59% 76.33 0.0
08 12:15 SE 6 16.09 Fair CLR 17 8 56% 76.35 0.0
08 11:55 E 7 16.09 Fair CLR 16 8 59% 76.35 0.0
08 11:35 NE 9 16.09 Fair CLR 16 8 59% 76.38 0.0
08 11:15 NE 9 16.09 Fair CLR 15 8 63% 76.38 0.0
08 10:55 E 13 16.09 Fair CLR 15 8 63% 76.35 0.0
08 10:35 N 11 16.09 Fair CLR 15 8 63% 76.35 0.0
08 10:15 NE 13 16.09 Fair CLR 15 9 68% 76.35 0.0
08 09:55 N 7 16.09 Fair CLR 14 9 72% 76.35 0.0
08 09:35 NE 15 16.09 Fair CLR 13 9 77% 76.33 0.0
08 09:15 N 11 16.09 Fair CLR 12 10 88% 76.33 0.0
08 08:55 N 11 16.09 Fair CLR 12 11 94% 76.3 0.0
08 08:35 N 6 16.09 Fair CLR 10 10 100% 76.3 0.0
08 08:15 N 7 16.09 Fair CLR 9 9 100% 8 76.28 0.0
08 07:55 NW 6 16.09 Fair CLR 8 8 100% 76.28 0.0
08 07:35 Calm 11.27 Fair CLR 7 7 100% 76.25 0.0
08 07:15 Calm 1.21 Fog/Mist OVC002 6 6 100% 76.23 0.0
08 06:55 Calm 0.24 Fog OVC002 5 5 100% 76.2 0.0
08 06:35 Calm 0.80 Fog OVC002 5 5 100% 76.17 0.0
08 06:15 Calm 8.05 Fog/Mist OVC004 5 5 100% 76.15 0.0
08 05:55 Calm 0.80 Fog OVC004 5 5 100% 76.12 0.0
08 05:35 Calm 1.21 Fog/Mist OVC004 6 6 100% 76.1 0.0
08 05:15 Calm 1.61 Fog/Mist BKN004 6 6 100% 76.1 0.0
08 04:55 Calm 2.41 Fog/Mist VV007 6 6 100% 76.1 0.0
08 04:35 Calm 8.05 Fog/Mist SCT002 BKN065 6 6 100% 76.07 0.0
08 04:15 Calm 2.01 Fog/Mist BKN002 BKN065 6 6 100% 76.07 0.0
08 03:55 Calm 3.22 Fog/Mist SCT004 7 7 100% 76.05 0.0
08 03:35 Calm 2.41 Fog/Mist SCT004 7 7 100% 76.05 0.0
08 03:15 Calm 11.27 Fair CLR 7 7 100% 76.05 0.0
08 02:35 Calm 11.27 Fair CLR 8 8 100% 76.05 0.0
08 02:15 Calm 16.09 Fair CLR 7 7 100% 76.05 0.0
08 01:55 Calm 16.09 Fair CLR 8 8 100% 76.02 0.0
08 01:35 Calm 16.09 Fair CLR 8 8 100% 76.02 0.0
08 01:15 Calm 16.09 Fair CLR 8 8 100% 76.02 0.0
08 00:55 Calm 16.09 Fair CLR 9 9 100% 76.02 0.0
08 00:35 Calm 16.09 Partly Cloudy SCT100 9 9 100% 76 0.0
08 00:15 Calm 16.09 Overcast OVC100 9 9 100% 75.97 0.0
07 23:55 Calm 16.09 Overcast SCT090 OVC110 10 10 100% 75.97 0.0
07 23:35 Calm 16.09 Overcast SCT090 OVC110 10 10 100% 75.97 0.0
07 23:15 Calm 16.09 Overcast SCT080 OVC100 10 10 100% 75.95 0.0
07 22:55 Calm 16.09 Overcast SCT080 OVC110 9 9 100% 75.97 0.0
07 22:35 Calm 16.09 Overcast SCT080 OVC110 10 10 100% 75.92 0.0
07 22:15 Calm 16.09 Overcast SCT080 OVC110 9 9 100% 75.92 0.0
07 21:55 Calm 16.09 Overcast BKN070 BKN090 OVC110 10 10 100% 75.92 0.0
07 21:35 N 6 16.09 Light Drizzle OVC060 10 10 100% 75.92 0.0
07 21:15 Calm 16.09 Overcast OVC060 10 10 100% 75.92 0.0
07 20:55 N 6 16.09 Overcast OVC060 10 10 100% 75.87 0.0
07 20:35 NE 6 16.09 Overcast OVC050 10 10 100% 75.84 0.0
07 20:15 NE 7 16.09 Overcast OVC050 10 10 100% 9 75.82 0.0
07 19:55 N 9 16.09 Overcast SCT040 OVC049 10 10 100% 9 75.82 0.0
07 19:35 Calm 16.09 Overcast BKN040 OVC047 10 10 100% 75.77 0.0
07 19:15 N 6 16.09 Overcast OVC038 10 10 100% 75.77 0.0
07 18:55 NE 11 16.09 Overcast OVC036 10 10 100% 9 75.79 0.0
07 18:35 NE 11 16.09 Overcast OVC034 10 10 100% 9 75.79 0.0
07 18:15 N 13 16.09 Overcast OVC032 11 11 100% 75.79 0.0
07 17:55 N 15 16.09 Overcast SCT012 OVC028 11 11 100% 75.82 0.0
07 17:35 N 9 16.09 Light Drizzle SCT013 SCT021 OVC027 11 11 100% 75.82 0.0
07 17:15 N 15 16.09 Drizzle SCT015 OVC025 11 11 100% 75.79 0.0
07 16:55 N 11 11.27 Light Rain SCT017 OVC023 11 11 100% 75.74 0.0
07 16:35 N 9 16.09 Overcast OVC021 10 10 100% 9 75.74 0.0
07 16:15 NE 9 G 15 16.09 Light Drizzle OVC021 10 10 100% 9 75.74 0.0
07 15:55 NE 13 16.09 Overcast SCT010 SCT018 OVC023 10 10 100% 8 75.74 0.0
07 15:35 NE 15 G 26 16.09 Overcast SCT010 BKN016 OVC023 10 10 100% 8 75.74 0.0
07 15:15 N 17 G 26 16.09 Overcast BKN016 OVC022 10 10 100% 8 75.77 0.0
07 14:55 N 19 G 28 16.09 Overcast OVC013 11 11 100% 75.77 0.0
07 14:35 N 15 G 26 16.09 Overcast OVC015 11 11 100% 75.77 0.0
07 14:15 N 24 G 30 16.09 Rain BKN013 OVC020 11 11 100% 75.74 0.0
07 13:55 NE 20 G 33 16.09 Light Drizzle SCT009 SCT013 OVC022 12 12 100% 75.72 0.0 0.18
07 13:35 NE 13 16.09 Light Rain SCT007 BKN010 OVC024 13 13 100% 75.74 0.0 0.15
07 13:15 NE 19 G 26 16.09 Light Drizzle BKN007 OVC010 13 13 100% 75.77 0.0 0.08
07 12:55 NE 15 11.27 Rain OVC009 13 13 100% 75.77 0.0 0.36
07 12:35 NE 19 11.27 Heavy Rain OVC007 13 13 100% 75.79 0.0 0.25
07 12:15 NE 13 16.09 Rain OVC005 13 13 100% 75.77 0.0 0.13
07 11:55 NE 15 11.27 Rain OVC005 13 13 100% 75.77 0.0 0.69
07 11:35 N 17 16.09 Light Rain OVC005 13 13 100% 75.77 0.0 0.51
07 11:15 N 13 8.05 Rain OVC005 13 13 100% 75.77 0.0 0.25
07 10:55 N 13 6.44 Heavy Rain OVC005 13 13 100% 75.77 0.0 1.02
07 10:35 N 24 G 35 2.41 Heavy Rain OVC005 15 15 100% 75.77 0.0 0.61
07 09:55 Calm 4.02 Rain BKN006 OVC011 17 17 100% 75.72 0.0 0.41
07 09:35 N 6 4.02 Heavy Rain OVC004 17 17 100% 75.72 0.0 0.25
07 09:15 Calm 4.83 Heavy Rain BKN002 BKN011 OVC016 17 17 100% 75.74 0.0 0.1
07 08:55 Calm 4.02 Rain SCT004 BKN019 OVC035 17 17 100% 75.74 0.0 1.07
07 08:35 Calm 1.61 Heavy Rain BKN003 BKN008 OVC024 17 17 100% 75.77 0.0 0.66
07 08:15 Calm 2.41 Heavy Rain OVC003 17 17 100% 75.79 0.0 0.25
07 07:55 Calm 4.02 Heavy Rain OVC003 17 17 100% 75.79 0.0 0.1
07 07:35 Calm 4.83 Light Drizzle OVC005 17 17 100% 75.77 0.0 0.05
07 07:15 Calm 6.44 Rain BKN007 OVC013 17 17 100% 75.77 0.0 0.03
07 06:55 Calm 4.83 Light Rain SCT009 BKN015 OVC019 17 17 100% 75.74 0.0 0.36
07 06:35 Calm 4.83 Heavy Rain SCT007 BKN015 OVC041 17 17 100% 75.74 0.0 0.3
07 06:15 Calm 4.83 Heavy Rain SCT004 BKN028 OVC050 17 17 100% 75.74 0.0 0.15
07 05:55 S 6 4.02 Heavy Rain SCT004 BKN011 OVC050 17 17 100% 75.74 0.0 0.51
07 05:35 S 6 6.44 Heavy Rain OVC015 17 17 100% 75.77 0.0 0.28
07 05:15 S 7 8.05 Rain OVC017 17 17 100% 75.77 0.0 0.1
07 04:55 S 7 16.09 Rain BKN019 OVC025 17 17 100% 75.77 0.0 0.03
07 04:35 Calm 16.09 Light Rain OVC027 17 17 100% 75.77 0.0
07 04:15 Calm 11.27 Overcast OVC031 17 17 100% 75.79 0.0
07 03:55 N 6 16.09 Light Rain BKN036 OVC042 17 17 100% 75.82 0.0
07 03:35 Calm 16.09 Light Rain SCT035 OVC044 18 18 100% 75.84 0.0
07 03:15 SW 7 16.09 Overcast SCT037 BKN050 OVC090 18 18 100% 75.84 0.0
07 02:55 SW 11 16.09 Overcast BKN055 BKN065 OVC100 18 18 100% 75.84 0.0
07 02:35 SW 11 16.09 Mostly Cloudy BKN070 BKN080 BKN120 18 18 100% 75.84 0.0
07 02:15 W 9 16.09 Fair CLR 18 18 100% 75.82 0.0
07 01:55 SW 13 16.09 Light Drizzle CLR 18 18 100% 75.84 0.0 0.03
07 01:35 SW 9 16.09 Light Rain SCT046 SCT060 BKN110 18 18 100% 75.84 0.0 0.03
07 01:15 SW 13 16.09 Drizzle BKN110 18 18 100% 75.95 0.0
07 00:55 W 7 16.09 Light Rain SCT050 SCT100 BKN120 18 18 100% 75.95 0.0
07 00:35 Calm 16.09 Light Drizzle SCT050 18 18 100% 75.9 0.0
07 00:15 Calm 16.09 Light Drizzle SCT110 18 18 100% 75.9 0.0
06 23:55 SW 6 16.09 Drizzle BKN110 18 18 100% 75.87 0.0
06 23:35 SW 6 16.09 Partly Cloudy SCT120 18 18 100% 75.87 0.0
06 23:15 Calm 16.09 Fair CLR 19 19 100% 75.87 0.0
06 22:55 S 6 16.09 Fair CLR 18 18 100% 75.84 0.0
06 22:35 Calm 16.09 Fair CLR 18 18 100% 75.87 0.0
06 22:15 Calm 16.09 Fair CLR 18 18 100% 75.9 0.0
06 21:55 Calm 16.09 Fair CLR 18 18 100% 75.9 0.0
06 21:35 Calm 16.09 Fair CLR 19 19 100% 75.87 0.0
06 21:15 Calm 16.09 Fair CLR 19 19 100% 75.87 0.0
06 20:55 Calm 16.09 Fair CLR 20 20 100% 75.84 0.0
06 20:35 Calm 16.09 Fair CLR 20 20 100% 75.87 0.0
06 20:15 W 7 16.09 Fair CLR 20 20 100% 75.9 0.0
06 19:55 SW 11 16.09 Fair CLR 21 20 94% 75.87 0.0
06 19:35 W 9 16.09 Fair CLR 22 20 88% 75.84 0.0
06 19:15 SW 15 16.09 Fair CLR 22 19 83% 75.82 0.0
06 18:55 SW 13 16.09 Fair CLR 22 20 88% 75.82 0.0
06 18:35 SW 13 16.09 Fair CLR 22 20 88% 75.82 0.0
06 18:15 SW 19 16.09 Fair CLR 22 20 88% 75.84 0.0
06 17:55 SW 15 16.09 Fair CLR 22 20 88% 75.84 0.0
06 17:35 SW 19 16.09 Fair CLR 21 20 94% 75.82 0.0
06 17:15 S 20 16.09 Partly Cloudy SCT120 21 19 88% 75.82 0.0
06 16:55 S 19 16.09 Fair CLR 21 19 88% 75.79 0.0
06 16:35 S 15 16.09 Fair CLR 21 19 88% 75.82 0.0
06 16:15 S 13 16.09 Partly Cloudy SCT025 SCT075 21 19 88% 75.87 0.0
06 15:55 S 20 16.09 Partly Cloudy SCT055 SCT065 21 20 94% 75.92 0.0
06 15:35 SW 19 G 35 16.09 Rain SCT060 BKN065 OVC110 22 18 78% 75.97 0.0
06 15:15 SW 15 G 28 16.09 Mostly Cloudy BKN080 BKN110 23 17 69% 75.95 0.0
06 14:55 SW 24 G 39 16.09 Mostly Cloudy BKN085 BKN110 23 17 69% 75.97 0.0
06 14:35 SW 28 G 39 16.09 Mostly Cloudy SCT034 SCT085 BKN110 23 17 69% 76 0.0
06 14:15 SW 26 G 37 16.09 Partly Cloudy SCT027 SCT033 SCT040 24 17 65% 25 76 0.0
06 13:55 SW 31 16.09 Light Rain SCT027 SCT033 SCT040 23 17 69% 76.02 0.0
06 13:35 SW 19 G 31 16.09 Partly Cloudy SCT095 23 17 69% 76.02 0.0
06 13:15 SW 20 G 30 16.09 Mostly Cloudy BKN065 23 17 69% 76.05 0.0
06 12:55 SW 22 G 28 16.09 Mostly Cloudy BKN065 22 16 69% 76.07 0.0
06 12:35 SW 17 16.09 Fair CLR 22 17 73% 76.07 0.0
06 12:15 SW 15 16.09 Fair CLR 22 16 69% 76.1 0.0
06 11:55 SW 22 G 30 16.09 Fair CLR 22 16 69% 76.07 0.0
06 11:35 S 17 16.09 Fair CLR 21 16 73% 76.1 0.0
06 11:15 S 19 G 26 16.09 Partly Cloudy SCT100 20 16 78% 76.1 0.0
06 10:55 S 20 G 28 16.09 Partly Cloudy SCT100 19 16 83% 76.1 0.0
06 10:35 S 22 G 28 16.09 Fair CLR 18 16 88% 76.1 0.0
06 10:15 SW 15 G 30 16.09 Mostly Cloudy BKN110 18 16 88% 76.12 0.0
06 09:55 S 20 16.09 Overcast OVC110 18 16 88% 76.12 0.0
06 09:35 S 20 G 31 16.09 Mostly Cloudy BKN110 17 16 94% 76.1 0.0
06 09:20 SW 15 16.09 Mostly Cloudy BKN110 17 16 94% 76.1 0.0
06 08:55 S 13 16.09 Overcast OVC110 17 16 94% 76.07 0.0
06 08:35 S 13 16.09 Partly Cloudy SCT120 16 16 100% 76.07 0.0
06 08:15 S 15 16.09 Fair CLR 16 16 100% 76.1 0.0
06 07:55 S 9 16.09 Fair CLR 16 15 94% 76.1 0.0
06 07:35 S 13 16.09 Fair CLR 15 15 100% 76.1 0.0
06 07:15 S 13 16.09 Partly Cloudy SCT120 15 15 100% 76.1 0.0
06 06:55 S 11 16.09 Partly Cloudy SCT120 15 15 100% 76.1 0.0
06 06:35 S 13 16.09 Fair CLR 15 15 100% 76.1 0.0
06 06:15 S 13 16.09 Fair CLR 14 14 100% 76.07 0.0
06 05:55 S 9 16.09 Fair CLR 14 14 100% 76.1 0.0
06 05:35 S 9 16.09 Fair CLR 14 14 100% 76.1 0.0
06 05:15 S 9 16.09 Fair CLR 14 14 100% 76.07 0.0
06 04:55 S 13 16.09 Fair CLR 15 15 100% 76.07 0.0
06 04:35 S 15 16.09 Fair CLR 14 14 100% 76.1 0.0
06 04:15 S 13 16.09 Fair CLR 14 14 100% 76.1 0.0
06 03:55 S 11 16.09 Fair CLR 15 15 100% 76.1 0.0
06 03:35 S 11 16.09 Fair CLR 15 15 100% 76.1 0.0
06 03:15 S 11 16.09 Fair CLR 15 15 100% 76.1 0.0
06 02:55 S 11 16.09 Fair CLR 15 15 100% 76.12 0.0
06 02:35 S 9 16.09 Fair CLR 15 15 100% 76.1 0.0
06 02:15 S 11 16.09 Fair CLR 16 15 94% 76.12 0.0
06 01:55 S 9 16.09 Fair CLR 16 15 94% 76.15 0.0
06 01:35 S 11 16.09 Fair CLR 16 15 94% 76.17 0.0
06 01:15 S 13 16.09 Fair CLR 16 15 94% 76.17 0.0
06 00:55 S 17 16.09 Fair CLR 17 15 88% 76.17 0.0
06 00:35 S 15 G 26 16.09 Fair CLR 17 15 88% 76.2 0.0
06 00:15 S 17 16.09 Fair CLR 17 15 88% 76.17 0.0
05 23:55 S 15 16.09 Fair CLR 17 15 88% 76.17 0.0
05 23:35 S 15 G 28 16.09 Fair CLR 18 15 83% 76.17 0.0
Date Time (edt) Wind (kph) Vis. (km) Weather Sky Cond. Air Dwpt Max. Min. Relative Humidity Wind Chill (°C) Heat Index (°C) altimeter (cm) sea level (mb) 1 hr 3 hr 6 hr
6 hour
Temperature (ºC) Pressure Precipitation (cm)